Wind_Speed
14 12 11 11 11 11 10 9 9 9 10 11 11 11 10 9 8 7 5 4 4 5 5 6 7 7 7 7 7 7 7 8 9 11 10 8 11 14 12 12 14 13 11 10 11 14 15 15 16 14 13 11 9 10 10 11 11 5 2 1 2 3 3 4 7 6 3 4 6 11 16 7 2 7 8 13 18 20 17 15 16 12 18 22 20 28 29 26
16 15 13 11 10 10 10 9 8 8 9 10 11 11 11 10 8 8 6 4 3 4 5 6 7 8 8 8 8 8 8 8 10 11 7 6 10 15 14 14 14 13 12 10 10 13 15 16 16 15 14 11 8 8 7 9 13 8 3 2 4 5 4 6 8 8 4 6 8 13 19 11 4 9 10 10 12 15 15 15 19 20 21 21 24 29 28 28
16 16 15 13 11 10 10 9 8 8 9 10 11 11 11 10 9 8 7 5 3 3 4 5 7 8 9 9 9 9 8 8 9 6 2 4 8 12 15 15 14 13 11 9 8 11 14 14 14 15 13 8 7 7 5 7 11 9 4 2 5 4 3 7 8 13 12 14 14 13 16 12 8 10 9 10 13 12 12 15 21 23 25 27 28 29 30 30
16 16 16 14 12 10 10 10 9 8 8 10 11 11 11 11 9 8 7 5 3 2 2 4 6 7 9 9 9 8 9 8 4 3 4 2 3 9 14 15 15 13 12 11 10 11 13 12 12 11 8 5 7 7 5 8 10 6 5 3 4 2 1 5 8 17 19 20 19 14 13 11 10 9 8 12 12 7 13 22 27 29 32 32 30 31 32 30
16 17 17 15 13 11 10 10 9 8 9 10 11 12 12 11 9 7 7 5 4 3 2 4 5 6 9 9 8 8 7 4 4 6 6 5 3 4 11 15 15 13 14 14 12 13 14 13 11 8 5 4 5 5 7 14 14 5 3 1 3 2 1 3 6 15 20 19 17 14 11 11 12 8 6 13 11 8 18 28 31 35 36 34 33 31 30 31
14 16 16 16 14 12 11 10 10 9 10 11 12 12 11 10 8 6 6 5 4 3 3 4 5 6 8 8 9 7 4 1 4 5 4 4 5 2 6 14 16 14 15 15 14 15 15 14 11 7 4 3 5 6 7 13 15 4 1 3 7 3 1 2 6 13 23 22 16 15 12 12 11 5 7 11 11 14 22 29 33 35 37 35 34 31 30 31
14 15 16 16 14 12 11 11 11 10 11 12 12 13 11 8 6 5 5 5 4 4 4 4 5 6 7 9 8 7 6 3 1 2 2 2 3 3 4 12 15 15 16 17 17 17 17 15 12 8 4 4 7 7 3 7 8 3 1 2 6 5 4 3 2 9 22 22 19 19 13 11 9 5 8 10 13 20 24 30 34 34 35 34 33 31 30 30
14 15 16 15 14 12 11 11 11 11 12 12 12 12 10 8 5 4 4 4 5 5 5 5 5 6 7 9 8 8 6 1 3 3 2 2 3 3 2 9 13 16 18 18 18 19 18 15 13 10 4 4 5 3 6 7 4 2 2 2 3 5 7 9 13 16 16 15 21 19 9 8 9 7 5 7 18 27 28 32 34 35 35 33 33 31 30 29
14 15 16 16 14 12 10 10 10 11 12 12 12 11 10 8 6 4 4 4 5 5 5 6 6 6 7 8 8 7 1 6 4 4 3 3 3 4 3 6 11 16 18 18 18 19 17 15 14 9 4 6 7 4 9 4 2 3 5 5 4 5 9 11 15 18 13 13 21 13 6 5 9 8 2 9 25 32 32 34 34 35 34 33 33 32 30 29
14 16 16 15 14 12 10 9 10 10 11 11 11 11 11 9 7 6 5 5 5 6 6 6 7 7 8 8 6 3 5 6 1 2 3 3 4 6 5 6 10 16 18 19 19 21 17 13 11 6 5 8 8 5 8 4 5 11 12 9 7 7 7 8 11 13 10 9 13 8 6 8 11 7 1 15 33 35 35 34 34 36 34 33 33 32 30 27
15 16 16 15 14 12 10 9 9 10 10 10 10 10 10 9 8 7 7 6 6 7 7 7 7 8 9 8 5 2 7 5 2 1 1 3 5 7 6 5 10 16 19 19 20 22 18 12 5 2 3 7 7 2 1 8 17 19 17 11 6 7 7 6 5 8 9 6 6 6 6 8 9 4 4 21 36 37 36 33 33 35 33 34 33 32 30 27
16 16 16 15 14 11 10 9 9 9 9 9 9 9 9 9 9 8 8 8 8 8 8 8 8 8 10 12 9 5 7 6 6 4 2 2 4 6 5 4 9 15 19 18 19 20 17 11 2 4 4 7 4 2 5 14 21 16 11 7 4 4 6 5 3 5 7 6 7 7 4 5 6 7 14 28 36 37 36 33 32 32 32 33 33 32 29 26
16 17 16 15 13 11 9 9 9 8 8 9 9 9 9 9 10 9 8 9 8 8 8 8 9 10 11 12 5 7 7 7 8 6 2 2 2 4 5 3 7 13 18 17 17 18 17 10 4 7 9 9 3 4 8 13 14 8 2 4 4 3 3 4 5 5 6 5 0 4 4 3 6 13 24 31 36 36 32 31 30 30 31 32 32 31 28 27
16 16 16 15 13 11 9 9 9 8 7 8 8 9 9 10 11 11 10 10 9 8 8 10 11 10 11 9 3 7 8 8 8 6 3 3 3 3 4 3 8 12 16 18 15 14 13 8 7 10 13 8 5 11 11 7 5 3 2 2 3 3 1 3 4 3 4 7 12 3 4 2 6 15 27 33 35 34 30 28 28 28 31 32 31 29 28 28
16 16 16 15 13 11 9 9 8 7 7 7 8 9 9 11 12 12 12 11 9 9 10 12 12 12 14 9 3 7 8 7 8 7 6 6 5 5 5 3 8 11 14 16 14 12 10 7 8 9 7 5 13 10 5 3 2 2 3 1 2 2 1 3 6 7 5 8 18 11 3 1 6 14 27 34 34 33 29 27 27 28 30 31 30 29 29 29
16 16 15 14 13 11 10 9 8 7 6 6 7 8 10 12 13 11 11 10 9 9 11 13 13 13 11 5 1 4 5 7 7 7 8 7 6 5 4 3 6 10 12 12 10 10 9 7 8 6 3 9 9 5 4 3 1 2 2 3 1 2 1 2 6 10 7 4 11 11 2 1 3 15 27 31 32 32 28 26 27 28 29 30 29 29 28 26
16 15 14 14 13 11 10 8 8 6 5 5 6 8 11 12 11 9 7 9 10 10 12 12 13 12 7 1 2 1 5 7 7 7 8 8 7 6 4 5 5 8 9 7 6 8 7 6 5 4 5 5 3 4 5 2 2 1 2 2 1 2 2 2 1 3 6 5 5 6 3 3 4 14 26 28 33 31 25 26 28 28 29 29 28 27 26 25
16 15 14 14 12 11 9 8 8 5 3 5 6 8 10 11 10 6 5 11 11 9 10 7 7 7 3 3 6 7 11 9 4 4 6 7 6 7 7 6 4 5 5 3 5 8 6 4 3 2 2 2 2 5 3 3 5 4 3 3 2 2 2 3 2 3 4 7 3 3 4 3 7 5 12 17 28 30 26 27 29 29 28 28 27 26 25 25
16 15 14 13 11 10 9 8 7 3 2 5 8 10 9 10 11 4 7 16 12 5 4 4 5 3 4 10 11 9 10 4 3 3 6 8 5 7 9 7 5 5 3 1 3 6 6 3 2 3 2 3 5 6 5 5 5 6 5 3 5 4 2 3 2 2 3 5 4 2 4 3 4 1 3 4 13 20 26 27 28 28 26 28 27 25 26 26
16 15 13 12 10 9 8 7 5 2 2 3 6 9 9 12 9 4 13 22 14 7 9 10 12 11 12 14 8 6 7 1 4 4 6 7 8 7 9 10 8 5 2 2 3 3 5 3 2 4 6 6 8 8 7 5 4 5 3 3 5 4 2 3 2 2 3 3 2 3 5 4 0 2 2 2 5 12 21 23 25 26 25 28 26 25 27 28
16 14 12 10 9 9 7 6 3 0 2 3 8 10 9 11 7 6 16 20 15 13 12 10 11 14 13 9 3 6 10 4 5 6 6 7 9 7 8 8 4 3 3 3 2 2 3 4 5 7 8 9 8 7 7 4 3 5 4 4 4 3 2 3 3 6 5 2 1 3 5 3 2 4 4 1 2 10 18 22 24 25 26 28 26 26 28 28
16 13 11 9 7 7 6 5 2 1 1 4 8 10 12 15 11 11 13 13 16 15 11 9 10 12 11 8 6 7 9 5 7 7 7 8 9 7 6 5 3 3 3 0 0 3 1 4 8 9 7 6 5 4 6 5 4 5 4 5 4 3 3 4 5 7 3 1 2 4 6 5 2 3 6 5 3 6 13 23 28 27 26 27 27 29 29 28
16 13 10 8 6 6 5 3 2 1 1 4 8 11 14 16 15 15 10 8 14 13 9 9 10 11 10 7 6 8 7 5 6 7 8 9 10 9 7 5 4 3 1 1 4 1 2 5 8 8 6 5 4 4 6 4 3 4 4 5 4 5 5 2 5 7 0 1 3 4 4 3 1 3 6 8 7 4 7 19 29 29 28 31 31 32 32 28
16 13 9 7 5 4 4 3 2 1 2 4 7 10 12 15 14 14 9 5 7 8 6 5 7 9 9 5 3 8 8 7 7 5 8 10 9 8 6 5 4 2 2 3 6 4 5 8 6 2 4 6 4 3 5 4 2 3 6 6 5 8 5 3 7 8 3 2 3 6 2 1 3 5 6 6 6 4 4 13 24 27 28 32 33 33 34 31
16 12 8 6 4 4 3 3 2 3 4 4 6 8 11 13 12 11 7 2 3 5 4 2 5 7 7 5 5 8 6 9 10 6 7 11 11 6 4 6 4 2 4 3 3 4 8 10 6 1 2 5 4 3 4 5 3 3 6 8 8 11 6 9 12 9 4 2 3 6 3 2 5 8 8 4 3 5 4 8 19 24 25 28 30 30 31 32
16 11 8 5 3 3 3 3 4 5 5 4 5 7 10 11 11 10 4 2 2 4 2 2 4 4 5 6 9 8 3 5 8 8 8 10 12 8 2 3 3 3 5 3 2 3 5 6 5 4 5 5 4 4 5 6 5 2 6 9 8 10 10 13 15 8 3 3 4 5 4 2 4 7 9 6 4 6 4 5 14 23 25 27 31 30 28 31
16 11 7 5 3 2 4 5 6 6 5 5 6 8 10 10 12 10 4 4 3 3 2 2 3 3 5 5 8 7 1 3 2 7 11 10 11 10 4 1 1 3 4 3 2 3 3 3 4 6 6 4 4 5 6 8 6 4 6 9 10 11 11 14 12 5 2 2 2 2 1 2 3 6 9 8 6 6 5 6 9 19 24 26 32 32 28 32
16 11 6 5 3 3 5 6 7 6 5 6 7 9 9 10 10 6 4 3 2 3 2 2 2 3 4 5 10 8 0 3 2 5 11 10 10 9 5 4 4 4 4 4 3 4 2 3 5 7 6 5 6 6 8 10 6 3 2 7 9 9 9 9 5 2 2 4 2 4 2 1 3 4 5 8 8 8 9 10 9 14 22 25 31 33 29 32
16 10 6 5 5 4 6 7 6 5 5 6 8 9 9 9 6 3 4 2 2 3 1 1 2 3 2 4 9 8 3 2 1 3 7 9 11 7 3 7 7 4 4 5 5 5 3 7 8 6 5 5 8 8 9 10 5 4 13 13 10 10 9 7 5 4 3 2 2 7 6 2 2 3 4 6 9 11 10 9 9 14 21 24 30 33 29 31
15 10 7 6 6 5 6 6 5 4 6 8 9 9 9 7 2 4 3 1 1 3 1 0 2 3 3 3 2 6 4 4 2 3 4 6 10 7 2 5 4 1 2 2 4 7 8 13 10 5 7 8 9 9 7 10 8 11 14 12 11 8 6 6 4 5 3 3 3 6 9 2 2 3 6 8 10 11 9 8 9 14 19 22 27 32 30 30
14 9 7 6 6 6 5 4 4 4 6 8 10 11 9 3 3 5 0 1 1 3 2 1 2 2 5 3 1 3 2 3 1 4 2 1 3 3 0 1 0 2 4 4 3 6 6 8 6 7 13 12 7 3 2 11 13 11 7 7 8 5 4 5 3 3 1 4 3 2 6 3 2 4 5 9 10 11 11 10 10 13 18 21 24 30 31 31
12 9 6 6 6 6 4 2 3 4 6 9 12 11 4 2 2 1 2 2 2 2 2 2 3 1 3 2 1 3 1 2 1 2 2 1 1 2 3 3 2 2 3 3 3 5 4 5 4 4 11 11 7 3 4 5 5 7 6 6 6 3 3 3 1 1 2 4 2 1 4 3 5 6 5 8 9 10 14 16 16 18 22 24 23 26 31 32
10 7 5 5 5 6 4 3 4 5 6 9 11 6 3 4 1 3 2 2 2 3 3 2 3 2 3 1 2 2 1 2 3 1 2 2 0 2 4 5 5 4 2 3 2 4 4 5 3 1 5 9 9 6 4 2 1 6 8 6 5 3 2 2 2 2 2 3 1 3 5 3 4 5 5 8 10 14 18 20 22 24 26 28 25 22 27 32
8 5 4 4 5 5 5 4 4 4 6 9 7 3 4 3 2 3 2 3 3 3 5 2 2 3 3 2 3 2 1 2 2 1 1 1 1 2 4 3 4 5 2 2 2 1 0 5 3 4 3 5 9 9 10 7 4 4 3 3 5 5 4 4 4 3 2 1 1 5 5 4 2 3 3 5 9 16 20 21 24 26 28 32 29 22 23 30
6 4 5 4 4 5 5 4 5 4 6 8 5 4 3 1 3 2 2 4 2 3 6 3 4 2 1 2 3 1 2 1 2 1 1 2 3 3 3 2 4 5 3 1 3 2 2 5 7 6 4 6 7 8 12 11 4 1 3 2 3 5 5 4 2 3 4 2 2 4 3 3 3 3 3 3 6 13 18 19 22 25 28 31 32 26 23 27
5 5 5 5 4 4 5 5 4 4 5 5 4 3 1 3 2 2 3 3 3 4 7 5 3 2 2 3 3 2 1 0 1 1 1 2 3 3 3 3 5 6 4 3 2 1 0 5 6 5 3 5 8 10 13 10 4 2 2 4 5 3 6 5 2 2 4 3 1 2 3 3 2 3 3 1 4 9 12 15 19 24 28 31 34 33 26 25
5 5 6 5 4 5 6 5 3 3 4 2 4 0 3 3 3 4 3 6 6 4 2 2 1 2 2 1 3 3 3 2 1 1 2 2 2 2 3 3 4 7 8 7 3 2 2 5 5 2 3 2 9 14 9 6 7 6 4 6 3 2 4 5 2 3 3 1 2 2 3 4 2 2 2 1 5 7 9 12 15 20 26 29 33 37 33 27
4 6 6 4 5 7 7 5 2 1 1 4 2 3 2 2 4 5 6 10 7 3 0 0 1 2 2 1 3 3 2 2 2 0 1 2 2 2 1 3 2 2 7 9 4 2 2 3 6 1 1 3 4 11 4 3 5 8 5 4 4 2 1 2 2 2 2 1 2 2 3 3 4 4 3 5 8 8 9 10 12 16 22 27 32 37 35 29
4 5 4 2 5 7 7 5 3 1 2 3 1 3 1 3 8 10 13 11 5 1 0 1 1 1 2 2 3 2 1 2 2 1 1 1 2 2 1 1 3 8 8 7 7 2 2 1 5 5 2 1 2 5 3 4 2 5 2 1 2 2 4 3 2 3 3 2 1 2 2 3 5 5 7 10 10 9 10 10 10 15 23 29 31 35 36 31
4 3 1 2 5 7 8 6 3 1 2 1 2 3 3 3 8 15 18 11 3 2 1 1 1 2 0 2 2 1 1 2 4 2 1 2 1 4 3 1 2 8 7 3 5 2 0 3 2 6 6 2 1 1 5 5 4 5 2 1 1 1 2 3 2 2 3 3 2 1 2 5 5 3 7 10 10 10 11 10 10 16 23 27 29 33 35 33
3 2 2 3 3 7 9 6 2 0 1 1 2 2 4 4 6 15 20 14 3 2 1 1 1 2 1 2 1 2 1 1 2 3 1 2 2 2 3 1 3 5 4 4 1 1 1 2 2 3 5 1 3 4 5 7 6 6 3 3 3 2 3 3 0 2 2 4 3 3 2 6 5 2 4 7 7 8 11 12 12 16 21 24 25 29 33 33
1 1 2 2 2 7 9 4 1 1 2 2 3 4 8 8 6 10 15 11 3 1 1 1 1 1 1 2 2 2 3 1 1 2 2 3 3 3 2 4 7 4 1 1 3 1 2 3 2 1 2 4 7 6 3 4 5 5 2 2 3 3 4 5 3 3 1 2 1 3 1 5 5 2 1 4 5 8 13 14 13 15 20 22 23 27 30 31
1 1 1 1 3 7 6 1 4 2 2 5 6 7 9 7 5 6 8 5 2 3 2 2 1 1 1 1 1 1 2 1 1 2 2 1 2 6 3 4 6 3 2 0 3 3 1 3 3 3 4 5 7 6 4 3 6 4 2 2 2 2 3 4 4 3 3 2 2 2 1 5 5 3 1 3 4 8 13 15 15 15 18 21 24 26 29 31
5 3 3 3 3 6 4 0 2 2 4 5 4 7 9 6 5 5 4 3 2 1 1 1 1 1 2 1 2 3 2 1 2 1 2 1 3 5 4 13 9 3 2 1 1 2 2 2 3 3 4 6 6 7 7 6 4 2 3 4 3 1 3 4 1 3 2 3 4 4 3 5 4 3 3 4 4 5 9 15 17 17 19 23 25 26 29 31
5 2 4 1 3 8 8 4 3 3 5 5 4 7 8 5 5 6 5 3 2 1 2 1 3 2 2 3 4 4 3 2 1 2 1 1 3 4 12 17 9 3 5 4 2 2 2 1 3 4 3 2 2 3 3 4 3 2 3 6 7 4 3 3 2 4 1 3 4 4 4 5 5 3 4 3 4 4 5 11 16 18 22 25 26 27 28 30
3 0 2 3 1 6 8 7 4 3 3 4 5 5 4 3 5 7 4 2 2 2 3 1 3 3 4 5 5 4 5 3 2 2 2 2 4 4 9 12 11 11 10 4 1 3 3 2 4 5 5 4 4 4 4 2 1 3 5 7 8 7 3 3 5 4 4 3 2 5 5 1 5 3 2 2 3 3 3 8 12 16 20 24 27 29 29 30
2 1 1 3 2 1 3 3 4 4 4 3 3 3 3 3 4 5 3 1 2 4 3 3 4 4 3 4 4 3 5 5 4 3 1 1 3 4 7 10 13 16 11 4 4 4 4 4 5 5 1 4 6 4 0 4 5 4 5 7 9 8 6 5 3 3 5 6 3 8 5 3 5 4 5 4 4 4 3 7 11 14 18 22 25 28 29 30
1 0 1 2 1 1 1 4 8 8 7 5 2 2 3 5 3 2 2 3 4 5 4 4 6 5 2 4 4 3 5 5 5 4 2 3 3 3 6 9 12 13 9 5 6 4 5 3 2 3 2 6 3 2 3 5 5 5 8 9 10 9 8 7 2 3 2 5 6 6 6 4 5 2 5 4 5 5 4 6 9 13 15 19 22 25 28 29
1 1 1 1 1 3 3 6 9 7 6 5 3 2 2 4 4 3 2 1 4 4 4 3 3 5 4 4 6 3 3 3 3 4 3 3 3 2 3 4 10 13 9 4 4 3 5 2 1 4 2 6 7 6 6 7 7 7 10 11 10 8 8 7 5 4 2 2 5 3 7 2 4 0 4 4 7 8 7 6 7 10 12 15 19 22 24 27
2 2 3 3 3 4 4 5 5 5 5 3 2 3 3 3 2 3 1 2 1 2 3 4 3 2 3 4 7 4 3 5 3 3 3 2 3 2 1 1 4 9 9 3 2 3 4 3 2 4 4 6 7 4 5 7 7 8 11 13 13 11 9 10 9 7 5 4 5 3 6 4 5 4 7 9 11 10 9 8 8 9 10 13 15 18 20 23
3 3 4 3 2 2 2 2 2 2 3 2 2 4 4 3 3 1 1 2 3 3 1 4 6 3 3 6 6 2 4 5 4 3 3 2 3 1 1 1 3 4 6 4 3 3 4 3 1 4 4 3 6 4 4 4 6 9 12 14 14 11 8 7 8 8 6 4 5 5 4 3 4 4 9 12 13 12 9 8 8 7 9 11 13 14 17 20
2 3 3 1 2 2 1 2 2 1 2 3 3 4 5 9 10 2 2 3 2 6 6 6 6 4 4 5 3 2 3 2 1 2 3 4 6 5 2 2 5 5 3 3 2 2 2 3 2 3 3 3 6 4 3 4 6 5 6 7 7 6 5 6 8 11 10 4 1 2 1 2 2 4 7 9 11 11 9 7 6 6 8 10 11 13 15 17
Wind_Direction
15 14 12 13 16 15 14 11 8 5 3 2 0 -0 360 356 350 343 333 314 298 304 315 317 316 314 313 310 303 295 284 274 266 262 258 236 219 218 207 191 196 194 181 180 185 180 177 178 175 179 185 191 211 224 219 217 221 215 183 195 198 198 204 188 173 174 162 156 182 168 166 175 202 179 139 130 141 139 140 138 141 137 141 151 158 164 167 170
10 10 9 9 11 13 14 11 10 6 360 358 356 353 352 350 345 338 334 327 306 295 304 309 313 314 316 316 311 307 297 282 269 261 252 231 218 218 207 190 197 198 187 184 185 183 180 178 178 185 190 195 214 214 210 205 198 188 153 184 217 209 206 196 160 135 146 162 177 177 172 175 165 163 148 138 147 140 130 130 131 127 137 148 154 162 168 170
5 5 5 4 4 8 12 11 10 5 359 356 351 347 344 343 339 331 325 329 323 294 294 300 306 312 316 317 318 317 309 295 277 257 223 217 217 220 209 194 197 199 192 190 191 188 179 173 178 186 192 203 224 217 219 199 192 194 179 202 236 223 224 220 161 139 169 171 168 186 178 171 158 153 154 153 149 144 141 140 137 133 141 149 153 162 166 169
0 360 0 0 359 1 6 9 8 5 -0 353 347 342 337 336 335 325 317 324 330 306 289 288 295 305 310 315 322 322 322 316 267 161 103 99 208 221 211 198 196 193 186 188 195 188 177 169 171 183 195 234 248 242 245 202 186 187 183 203 254 248 269 247 177 153 176 179 168 176 172 167 165 156 158 154 146 154 161 156 153 149 150 154 158 162 166 171
356 356 356 357 356 355 360 4 4 3 357 350 345 339 333 331 332 323 313 322 336 327 298 281 282 295 303 311 319 320 335 348 154 135 95 62 42 223 208 201 195 188 183 186 191 187 180 173 173 186 204 254 252 241 244 209 189 165 166 138 9 312 256 256 200 166 178 182 164 159 164 166 162 157 170 168 163 174 169 164 161 158 157 160 161 163 168 174
353 353 353 354 352 350 354 358 359 358 353 349 344 340 335 329 330 323 311 323 341 342 318 286 277 289 298 308 320 325 338 27 155 137 112 72 35 38 194 199 196 189 188 187 186 184 183 184 187 194 204 242 220 220 243 208 193 176 100 45 40 32 308 253 238 195 178 167 155 160 164 157 150 140 178 187 185 172 167 166 162 160 161 162 162 162 168 175
350 351 352 352 350 348 350 353 355 355 351 347 346 345 340 333 333 325 319 332 344 352 331 299 287 289 296 309 325 330 310 276 183 128 117 53 15 23 168 193 197 194 194 191 185 183 184 190 197 201 219 239 220 221 203 161 167 145 101 59 56 47 44 74 85 160 162 153 153 159 150 148 147 130 169 181 172 165 163 163 160 159 160 159 160 163 170 176
348 349 351 351 349 349 348 350 352 351 349 348 351 352 348 345 343 333 331 336 344 351 334 312 300 292 302 319 333 328 303 222 98 70 42 4 349 342 190 192 197 195 197 194 186 183 186 196 201 199 220 248 254 235 146 121 87 98 118 115 80 54 76 85 86 109 125 130 145 146 128 151 155 128 167 171 154 158 159 159 159 158 158 159 162 166 172 177
347 348 350 349 348 349 348 350 349 348 349 350 357 358 356 354 350 344 334 335 345 346 333 317 309 303 310 323 333 328 253 134 85 36 22 4 358 328 275 215 199 194 197 195 189 188 194 204 204 205 245 270 286 244 181 160 48 133 116 106 105 82 95 89 91 106 104 121 138 130 92 152 164 140 196 174 153 155 156 156 158 157 159 163 166 170 174 178
346 348 350 348 347 349 349 348 346 347 349 353 1 1 358 355 352 346 334 339 344 341 334 319 318 316 315 324 336 328 156 141 53 22 19 353 353 332 296 245 207 196 197 195 191 192 197 198 197 212 250 291 300 252 216 198 125 125 111 100 104 101 102 92 97 110 104 123 140 136 128 167 177 146 156 167 154 153 154 155 158 158 161 166 168 173 177 180
347 348 348 347 347 349 349 346 344 346 349 355 1 2 359 355 353 349 347 353 354 352 343 330 327 318 317 317 301 231 166 170 223 200 346 316 336 340 319 266 213 198 197 198 193 194 197 190 181 226 260 327 333 5 54 141 132 125 115 96 80 81 76 71 88 100 93 109 156 167 150 164 179 159 166 160 153 153 153 155 160 160 162 166 170 174 178 182
348 348 348 347 347 349 348 342 341 345 349 353 358 2 357 356 356 352 352 356 2 2 350 341 332 320 319 303 275 208 174 198 229 239 235 253 319 340 333 275 216 199 196 198 195 194 198 195 222 301 308 342 337 40 75 129 130 128 122 99 64 48 43 28 11 55 84 118 163 173 143 150 172 175 171 158 153 153 152 155 160 161 164 167 171 176 180 185
348 348 347 347 347 348 343 337 339 341 346 349 353 356 353 355 353 348 351 353 357 355 346 338 327 325 320 300 261 177 193 215 228 242 212 196 285 327 328 258 214 202 199 204 202 199 203 209 269 293 299 319 311 130 124 123 118 118 94 90 91 56 1 352 8 28 92 100 82 195 163 178 174 160 162 157 154 153 152 157 161 163 167 170 175 180 184 188
349 348 347 347 347 346 339 334 335 336 343 344 346 349 348 349 344 339 339 340 340 334 330 325 322 328 315 296 199 178 213 214 220 238 234 243 254 287 314 257 218 207 202 209 210 208 209 224 274 289 295 285 159 125 123 104 89 106 38 40 82 122 261 333 4 6 112 50 12 47 154 168 163 156 157 157 156 155 154 159 162 165 170 174 179 184 187 189
350 348 347 347 346 344 338 333 331 333 336 337 342 341 341 342 336 327 323 328 331 321 321 318 316 323 314 300 194 198 224 222 229 242 247 262 262 261 298 278 222 208 203 211 213 212 211 234 269 283 300 174 144 125 111 61 36 80 87 6 350 120 222 337 16 27 68 28 27 62 139 129 146 161 158 158 159 157 158 163 165 168 174 179 184 188 188 189
351 349 348 344 343 341 336 333 330 331 330 334 339 333 335 338 330 322 319 322 322 315 318 314 311 319 313 307 146 197 236 253 250 252 249 252 255 255 293 294 221 203 207 214 211 209 214 248 276 267 159 140 140 121 90 75 15 0 89 170 213 135 164 354 23 32 46 23 35 63 100 5 148 166 160 160 160 159 162 166 170 173 179 184 187 190 190 189
353 350 347 343 342 339 335 332 331 330 330 329 328 327 332 334 332 328 327 333 327 316 317 312 312 315 299 317 27 336 320 298 255 248 248 238 240 241 258 259 205 194 213 218 219 229 236 244 254 232 162 142 132 121 108 108 211 288 50 133 185 146 139 113 324 1 54 67 37 49 88 333 306 170 163 164 163 162 166 169 174 178 182 188 191 191 192 191
353 351 348 343 341 339 333 331 332 333 326 317 321 332 333 336 338 328 334 343 334 319 317 312 326 328 289 336 338 328 337 323 255 236 226 213 224 235 242 243 190 184 221 239 236 233 234 224 197 172 124 119 134 138 150 192 180 186 175 142 147 134 133 148 209 222 99 87 70 42 108 4 333 157 155 167 168 167 170 172 177 181 184 190 193 192 194 195
354 352 347 343 342 337 332 331 336 340 316 304 317 336 346 349 343 319 332 334 321 310 316 296 308 308 268 305 320 333 345 328 223 192 190 199 212 228 237 244 232 208 200 242 243 213 193 185 147 138 146 168 179 174 181 193 180 185 180 134 146 146 130 174 194 212 145 102 101 117 125 79 343 357 79 157 179 178 174 174 179 183 186 190 193 194 196 196
355 352 346 346 342 334 331 331 341 354 302 300 331 353 4 357 348 321 328 323 309 297 294 286 285 276 278 298 317 353 349 315 218 194 174 203 211 213 227 235 239 228 191 155 219 225 167 169 197 184 191 190 192 194 191 196 182 163 133 95 142 142 118 137 140 190 163 108 121 146 120 103 212 279 325 155 214 206 185 177 181 183 185 189 191 194 196 195
354 352 347 347 342 334 329 328 344 330 281 351 10 16 12 2 356 326 328 323 318 315 301 297 289 277 279 282 266 319 320 310 260 228 178 198 200 198 217 215 206 232 246 188 223 316 132 181 226 209 198 191 196 195 185 204 200 164 138 133 144 128 116 99 122 187 181 129 174 143 124 130 178 235 268 248 234 222 197 182 183 184 184 187 188 189 191 188
354 352 348 347 344 333 323 324 331 255 306 19 21 19 9 2 348 325 325 312 312 319 311 301 285 270 263 249 241 285 299 292 271 237 186 187 192 192 196 176 158 220 271 154 140 338 341 222 235 220 194 184 204 183 174 209 203 174 142 141 160 150 122 87 128 177 208 168 168 162 159 162 177 236 263 265 243 226 204 190 186 185 183 185 184 182 183 179
353 352 348 348 345 328 313 307 279 255 353 21 18 11 -0 355 348 336 325 284 297 313 307 282 266 260 254 249 246 252 260 255 254 226 195 196 195 196 187 150 153 199 272 162 169 208 245 243 242 222 175 173 215 176 173 208 186 155 148 149 174 178 161 126 156 161 230 300 156 159 174 150 128 275 274 259 245 239 212 196 191 187 185 185 184 181 179 179
351 350 346 347 345 322 298 275 254 260 330 2 3 356 352 353 353 346 331 277 288 306 314 283 259 259 256 261 239 231 239 237 239 223 200 200 187 187 197 175 151 171 228 205 185 193 238 255 263 225 158 185 210 172 159 176 194 185 182 179 171 180 177 107 141 141 79 345 129 128 97 331 188 212 246 250 241 240 224 198 191 189 188 186 184 183 182 184
349 348 342 343 342 314 282 247 247 272 295 342 345 339 353 351 346 344 334 320 297 292 319 288 247 253 254 259 238 230 242 239 244 246 208 201 190 173 191 186 160 202 224 204 182 209 253 258 257 273 214 200 195 203 184 167 189 232 211 210 186 174 152 111 134 142 120 256 208 154 152 262 206 203 221 219 201 228 243 205 190 187 189 186 184 185 183 184
346 344 338 338 332 293 249 242 267 276 291 323 325 330 346 342 338 341 345 45 338 286 300 223 216 237 247 245 235 232 264 264 251 243 225 218 207 187 165 181 161 210 211 179 180 222 255 244 201 208 233 214 195 226 218 169 155 234 223 210 182 160 140 134 148 152 150 200 218 187 171 193 207 211 216 201 184 212 241 238 197 184 186 187 187 189 183 180
343 340 334 328 319 258 239 254 261 269 294 308 312 322 331 336 341 341 2 47 353 291 280 211 202 238 245 235 216 197 170 319 276 224 219 219 208 190 186 234 163 223 206 149 211 238 227 227 199 206 220 212 206 226 215 169 153 239 223 180 164 157 150 150 153 152 133 109 127 203 158 112 204 221 207 189 192 210 223 243 213 185 184 188 190 192 186 180
340 333 322 314 305 255 243 246 248 259 285 302 310 315 324 336 339 349 63 63 310 296 297 227 216 260 262 225 203 190 150 333 351 219 215 209 201 186 193 214 179 213 218 150 221 256 191 206 213 203 209 210 219 222 186 167 182 246 122 122 135 135 130 131 123 87 78 86 142 215 213 138 235 245 181 174 198 214 211 221 220 191 185 187 192 194 188 183
335 324 310 298 286 261 241 236 239 247 263 295 313 314 327 334 334 35 78 77 277 287 293 216 234 248 235 178 200 222 278 301 312 212 198 187 195 192 201 217 197 215 237 180 217 263 240 236 228 191 188 209 229 230 178 170 202 111 95 89 86 90 90 88 72 37 39 47 207 205 198 194 264 250 162 171 205 213 208 209 212 198 188 187 192 194 188 183
328 315 301 288 276 258 236 229 230 243 276 306 315 318 331 330 6 67 48 0 288 279 272 203 239 206 164 106 228 247 249 256 254 179 159 163 192 203 210 225 207 186 277 242 233 258 259 259 259 214 205 210 219 234 189 161 142 101 96 92 79 70 64 62 54 49 40 293 266 205 198 191 312 237 190 194 205 202 198 197 202 199 193 190 191 193 190 182
319 307 300 286 269 250 235 229 232 264 299 313 318 326 334 333 80 80 92 266 326 295 306 269 258 168 157 142 220 237 233 279 256 147 157 121 178 209 203 259 309 55 350 336 284 282 277 260 256 219 219 210 190 238 177 151 139 110 100 110 91 51 30 42 23 44 114 242 287 223 193 176 271 245 213 216 207 191 193 196 195 192 193 193 191 191 191 185
311 304 298 279 257 231 216 226 260 300 315 321 327 330 341 50 45 68 249 316 338 284 285 222 228 203 187 183 213 220 216 290 262 141 170 152 127 210 188 196 195 40 338 301 290 313 297 240 231 220 223 201 155 75 70 126 134 116 120 118 94 52 41 66 265 266 209 230 267 164 172 190 251 250 228 225 211 196 200 199 194 190 189 193 193 190 190 187
306 301 289 266 239 210 214 253 290 321 322 324 330 334 70 82 6 243 255 309 260 247 272 225 195 143 124 136 268 231 180 277 266 196 161 150 114 264 248 212 160 116 243 244 313 333 318 296 283 201 231 197 153 117 117 135 202 148 141 131 118 110 108 150 210 252 258 256 249 150 166 203 268 262 225 216 208 202 204 201 197 194 190 193 196 193 191 190
301 290 263 242 216 208 224 252 285 314 324 328 336 26 72 64 257 257 282 265 241 258 282 257 139 93 111 187 240 191 138 272 254 148 119 91 63 278 278 250 147 122 154 248 301 215 223 309 251 183 224 183 154 154 159 154 165 172 131 108 147 154 156 172 192 197 183 243 105 135 168 198 220 246 232 226 214 197 198 201 197 196 194 193 196 197 195 191
289 257 242 233 215 216 224 243 269 294 328 337 4 74 88 216 252 282 263 252 261 300 301 333 92 94 277 270 275 188 144 242 238 124 103 150 176 208 235 221 174 155 131 163 255 194 164 263 246 234 221 163 160 169 150 133 138 180 67 66 194 183 152 137 160 162 138 119 127 154 210 232 203 243 278 272 221 191 191 195 191 192 194 191 194 199 199 192
282 250 247 245 227 218 223 245 263 285 313 340 40 69 180 213 221 218 231 263 306 319 322 349 82 139 287 316 306 291 53 0 186 84 345 201 205 212 214 213 186 178 160 164 232 244 253 274 277 291 271 167 158 158 150 147 145 104 125 213 229 180 125 110 74 36 81 103 180 192 251 293 289 272 286 221 190 186 185 187 186 189 189 188 191 197 201 195
275 255 251 245 221 212 222 241 266 300 313 43 73 309 224 216 207 198 250 298 299 296 328 5 86 180 206 291 300 315 355 5 81 53 331 313 285 231 252 275 181 176 195 196 222 242 216 284 297 344 334 246 154 141 147 172 141 126 193 211 202 57 82 100 93 24 47 119 236 204 232 278 273 252 289 186 185 190 186 185 186 187 186 187 190 194 199 198
278 263 261 247 220 216 220 236 254 282 0 64 44 277 217 228 238 233 282 301 304 308 136 179 262 187 155 156 274 284 347 35 62 41 329 352 302 248 328 306 206 211 231 201 204 267 165 289 293 262 3 293 130 116 128 247 150 144 189 174 129 103 100 107 123 134 147 216 263 254 254 254 221 214 204 195 197 193 188 188 186 185 187 189 190 191 194 197
304 282 278 247 224 220 212 222 233 228 38 57 354 277 244 258 269 280 295 297 294 315 224 228 234 109 124 158 212 256 34 107 133 123 41 56 294 280 3 302 271 318 303 185 172 246 146 129 289 294 340 315 48 89 158 238 173 133 139 136 124 139 154 167 169 151 149 166 228 288 302 253 231 215 183 189 199 189 184 189 189 191 191 190 190 188 189 194
327 320 299 227 226 220 211 219 233 95 57 97 213 252 261 269 287 298 307 309 264 218 279 249 77 53 66 186 183 221 101 146 161 146 171 176 263 288 294 38 302 316 325 134 154 231 100 109 249 299 341 58 140 148 176 190 164 131 115 276 265 79 134 159 171 142 124 136 178 211 289 264 249 205 173 183 193 186 183 187 192 195 193 191 190 185 186 191
356 8 313 257 225 217 214 218 248 114 94 244 224 232 271 295 296 302 315 328 309 231 261 255 100 79 160 180 196 213 151 127 151 131 200 203 167 270 284 328 293 303 354 36 59 187 121 110 187 299 349 4 242 251 203 186 164 144 162 198 185 156 131 123 191 274 110 122 167 161 214 269 268 223 179 175 182 192 189 186 187 191 191 190 188 184 184 188
58 43 318 302 205 202 203 202 280 220 174 248 267 271 287 299 290 298 317 330 339 314 346 64 81 91 163 186 210 178 132 104 142 135 210 218 172 193 266 304 290 290 51 354 290 255 139 99 88 287 293 256 266 280 243 188 141 124 176 201 148 135 125 129 179 237 110 97 130 125 190 268 272 279 212 161 177 196 192 186 182 184 184 181 180 179 179 181
333 321 314 281 205 194 189 281 325 309 245 264 280 288 291 288 275 296 310 312 347 19 21 27 33 23 350 241 230 93 95 71 67 136 199 264 241 222 235 331 308 289 92 107 302 328 55 67 33 304 299 303 299 321 357 44 85 83 338 358 122 182 139 140 175 169 134 157 137 90 276 266 281 320 33 133 160 178 185 186 179 173 171 169 170 172 171 171
330 321 158 153 219 212 190 250 284 273 286 289 295 301 298 279 255 279 294 296 331 38 66 0 0 349 308 315 56 58 67 71 36 40 150 112 263 241 5 5 340 299 45 59 250 17 24 45 50 24 356 352 341 350 4 8 41 70 306 328 318 261 101 102 101 79 107 198 144 124 233 254 276 338 44 96 116 138 175 185 179 170 165 161 161 164 169 170
337 292 195 180 248 224 219 227 243 282 308 318 311 301 303 290 266 270 267 285 325 125 126 332 323 349 358 29 51 38 35 82 67 353 51 48 291 328 16 7 348 331 340 302 223 76 80 129 96 92 80 49 19 345 327 311 327 0 333 338 343 354 94 128 104 83 177 217 131 148 221 261 289 338 45 83 112 108 152 175 179 176 169 164 161 162 169 175
14 175 268 329 266 212 234 255 284 312 309 325 311 293 298 294 294 297 281 279 342 39 97 24 340 20 33 41 45 17 3 29 67 32 35 10 312 325 1 358 359 3 349 327 36 75 96 68 68 108 135 163 184 231 256 263 17 12 346 347 357 355 0 107 111 132 192 173 173 221 206 235 287 267 106 120 141 125 139 161 174 179 172 169 168 166 169 175
35 80 21 340 316 284 308 321 5 353 299 290 281 268 290 287 295 320 311 285 3 39 67 35 31 42 35 47 60 17 350 359 25 32 15 322 301 302 322 331 353 5 358 358 36 68 100 45 39 85 101 234 203 205 287 78 84 49 11 7 7 359 13 68 109 211 171 135 225 251 188 158 265 230 156 165 160 141 155 161 171 178 176 174 173 171 172 175
4 341 83 47 282 221 19 339 345 334 301 284 249 230 278 277 279 331 305 302 3 45 64 23 20 35 65 109 105 35 -0 2 3 357 327 325 343 357 341 318 328 353 2 16 32 79 113 61 38 93 349 301 300 10 35 75 81 52 37 26 14 9 27 47 11 273 154 156 233 234 166 175 268 207 146 173 164 140 147 165 171 175 175 177 176 175 177 180
6 298 283 46 244 225 252 303 317 316 292 277 254 226 247 262 282 292 260 350 356 22 79 90 7 12 33 93 106 74 28 44 1 329 318 6 11 26 34 333 312 333 353 17 29 72 108 92 122 123 55 333 349 12 40 60 54 34 29 24 18 20 32 41 30 5 13 265 259 163 127 115 307 112 118 136 146 136 131 143 161 165 168 174 175 177 181 184
17 329 316 334 294 270 286 307 318 315 298 284 266 272 250 235 291 303 323 77 59 320 43 107 140 66 29 61 88 106 163 159 155 289 287 43 32 341 38 148 274 324 351 10 346 21 88 135 168 97 59 339 333 4 53 62 55 33 20 13 12 15 23 30 25 11 5 338 332 54 96 45 356 47 80 94 115 119 118 125 139 155 164 169 170 176 184 188
333 296 309 338 320 293 309 318 328 321 311 334 345 319 309 293 292 256 46 49 144 169 135 148 154 131 49 48 68 115 203 184 184 248 240 143 89 54 305 221 216 322 348 355 344 7 72 113 108 75 75 309 309 334 353 29 47 31 16 8 4 6 19 31 29 14 354 329 344 19 58 3 341 51 71 75 85 88 90 103 119 141 160 168 170 176 184 189
312 253 249 273 299 310 357 336 349 39 287 289 316 326 315 301 297 273 107 7 56 116 133 155 142 95 51 47 36 329 311 306 338 55 100 97 84 99 116 79 71 48 348 327 5 10 80 107 116 98 101 274 297 326 339 25 41 8 346 358 354 -0 31 41 31 14 357 346 17 34 50 287 318 66 74 66 68 70 70 81 109 141 158 168 176 182 185 188
Height
1522 1521 1520 1520 1519 1518 1517 1517 1516 1515 1514 1513 1512 1512 1511 1510 1509 1509 1508 1507 1507 1507 1506 1506 1505 1505 1504 1504 1503 1503 1502 1501 1500 1500 1499 1498 1499 1499 1501 1502 1504 1504 1505 1506 1506 1507 1507 1509 1510 1511 1512 1513 1514 1514 1515 1515 1516 1519 1521 1527 1530 1528 1524 1519 1521 1521 1520 1521 1522 1522 1522 1524 1527 1526 1527 1528 1529 1529 1531 1533 1533 1534 1535 1537 1538 1540 1541 1543
1522 1521 1520 1519 1519 1518 1517 1517 1516 1515 1514 1513 1512 1511 1510 1510 1509 1508 1507 1507 1506 1506 1506 1505 1505 1504 1504 1503 1502 1502 1501 1500 1499 1498 1497 1497 1498 1498 1499 1501 1502 1503 1504 1505 1506 1507 1508 1509 1510 1511 1512 1513 1514 1513 1514 1514 1514 1517 1520 1525 1525 1521 1516 1512 1514 1517 1518 1520 1521 1521 1520 1522 1526 1526 1527 1529 1531 1531 1532 1534 1535 1535 1537 1539 1540 1541 1543 1544
1521 1520 1519 1519 1518 1517 1517 1516 1516 1515 1514 1513 1512 1511 1510 1509 1508 1507 1507 1506 1506 1506 1505 1505 1504 1504 1503 1502 1502 1501 1500 1499 1497 1497 1497 1497 1497 1497 1499 1500 1501 1503 1504 1505 1506 1507 1508 1509 1510 1511 1512 1512 1513 1513 1513 1513 1514 1515 1518 1522 1519 1513 1511 1510 1513 1516 1516 1516 1519 1521 1520 1522 1525 1525 1527 1529 1530 1532 1532 1533 1533 1535 1537 1539 1541 1543 1544 1546
1521 1520 1519 1518 1518 1517 1516 1516 1515 1515 1514 1513 1512 1510 1509 1508 1507 1507 1506 1506 1505 1505 1505 1505 1504 1503 1503 1502 1501 1501 1499 1498 1496 1497 1497 1496 1497 1497 1498 1500 1501 1502 1504 1505 1506 1507 1508 1509 1510 1511 1512 1513 1512 1513 1513 1512 1513 1513 1515 1518 1514 1510 1511 1510 1512 1514 1513 1513 1516 1520 1520 1522 1524 1525 1526 1527 1531 1533 1532 1531 1530 1532 1536 1538 1541 1543 1545 1547
1522 1520 1519 1518 1517 1516 1516 1515 1515 1514 1514 1513 1511 1510 1509 1507 1507 1506 1505 1505 1505 1504 1504 1504 1503 1503 1502 1501 1501 1500 1500 1500 1497 1496 1497 1496 1497 1497 1498 1499 1501 1502 1503 1504 1505 1506 1508 1509 1510 1511 1513 1513 1512 1513 1511 1509 1510 1511 1513 1513 1512 1511 1511 1510 1510 1512 1511 1512 1516 1518 1519 1521 1522 1524 1526 1527 1529 1530 1529 1530 1531 1531 1534 1537 1540 1543 1545 1547
1522 1521 1519 1518 1517 1516 1515 1515 1514 1514 1513 1512 1511 1510 1508 1507 1506 1505 1505 1504 1504 1504 1504 1503 1503 1502 1502 1501 1501 1500 1501 1501 1498 1497 1497 1497 1497 1497 1498 1499 1501 1502 1502 1503 1505 1506 1507 1508 1510 1511 1512 1512 1511 1510 1507 1506 1508 1511 1513 1511 1511 1511 1510 1509 1508 1508 1508 1510 1515 1517 1518 1519 1521 1524 1525 1527 1527 1528 1529 1531 1532 1533 1535 1538 1541 1543 1545 1547
1522 1521 1519 1518 1517 1516 1515 1514 1514 1513 1512 1511 1510 1509 1508 1507 1506 1505 1504 1504 1504 1504 1503 1503 1503 1502 1501 1501 1500 1500 1500 1499 1497 1497 1497 1497 1498 1497 1498 1499 1500 1502 1502 1503 1504 1505 1507 1508 1509 1510 1512 1511 1509 1507 1505 1505 1506 1510 1513 1511 1511 1511 1510 1509 1507 1507 1507 1509 1512 1515 1517 1519 1522 1524 1525 1527 1527 1528 1531 1532 1534 1536 1538 1540 1542 1544 1545 1547
1522 1521 1519 1518 1517 1515 1515 1514 1513 1513 1512 1511 1510 1509 1508 1507 1506 1505 1504 1504 1504 1503 1503 1502 1502 1502 1501 1501 1500 1500 1498 1498 1497 1498 1498 1497 1498 1498 1498 1499 1500 1501 1502 1503 1503 1505 1506 1507 1509 1510 1511 1510 1507 1506 1505 1505 1507 1509 1512 1511 1511 1511 1511 1511 1509 1509 1510 1511 1513 1515 1519 1521 1523 1525 1526 1527 1527 1528 1532 1534 1535 1538 1540 1542 1543 1545 1546 1548
1522 1520 1519 1517 1516 1515 1515 1514 1513 1513 1512 1511 1510 1509 1508 1507 1506 1505 1505 1504 1503 1503 1502 1502 1502 1501 1501 1501 1501 1499 1497 1497 1498 1498 1498 1498 1498 1498 1498 1498 1500 1501 1501 1502 1503 1505 1506 1506 1508 1510 1510 1508 1506 1506 1503 1506 1510 1509 1510 1511 1511 1512 1513 1513 1513 1513 1513 1513 1514 1517 1520 1523 1524 1525 1527 1528 1527 1529 1532 1535 1537 1538 1541 1543 1544 1546 1547 1548
1521 1520 1518 1517 1516 1515 1514 1514 1513 1512 1512 1511 1510 1509 1508 1507 1506 1506 1505 1504 1503 1503 1502 1502 1502 1501 1501 1501 1501 1499 1497 1497 1497 1497 1498 1498 1498 1498 1498 1498 1499 1500 1501 1502 1502 1503 1505 1506 1508 1509 1509 1507 1506 1505 1502 1505 1508 1507 1509 1511 1512 1513 1513 1514 1515 1515 1516 1517 1517 1519 1521 1523 1524 1525 1528 1528 1527 1529 1533 1536 1538 1538 1541 1543 1545 1546 1548 1549
1521 1519 1518 1516 1515 1515 1514 1513 1513 1512 1512 1511 1510 1509 1508 1507 1507 1506 1505 1504 1503 1503 1502 1502 1501 1501 1501 1500 1501 1499 1497 1497 1497 1496 1497 1497 1498 1498 1497 1498 1498 1499 1500 1501 1501 1503 1505 1507 1508 1508 1509 1507 1506 1504 1503 1504 1505 1507 1509 1511 1513 1513 1513 1514 1515 1516 1519 1522 1520 1520 1522 1524 1525 1527 1529 1528 1527 1530 1533 1537 1539 1539 1541 1543 1545 1547 1548 1549
1521 1519 1518 1516 1515 1514 1514 1513 1512 1512 1511 1511 1510 1510 1509 1508 1507 1506 1505 1504 1503 1503 1503 1502 1502 1501 1500 1499 1499 1497 1496 1497 1496 1496 1496 1496 1497 1497 1497 1498 1498 1499 1500 1501 1501 1503 1505 1507 1508 1508 1508 1507 1508 1507 1507 1506 1505 1508 1509 1512 1516 1514 1514 1515 1514 1516 1519 1523 1522 1522 1528 1529 1527 1528 1529 1528 1528 1530 1533 1537 1539 1540 1542 1544 1545 1547 1548 1550
1520 1519 1517 1516 1515 1514 1513 1512 1512 1512 1511 1511 1510 1509 1509 1508 1507 1506 1505 1504 1503 1503 1503 1502 1501 1501 1500 1497 1495 1496 1496 1496 1496 1496 1496 1496 1497 1497 1497 1497 1498 1499 1500 1501 1502 1504 1506 1507 1508 1508 1507 1508 1508 1507 1508 1507 1507 1511 1510 1512 1518 1519 1519 1516 1514 1515 1517 1523 1522 1523 1535 1535 1527 1527 1528 1529 1529 1531 1534 1537 1539 1541 1542 1544 1545 1547 1548 1550
1520 1518 1517 1515 1514 1514 1513 1512 1512 1511 1511 1511 1510 1510 1509 1508 1507 1506 1505 1504 1504 1503 1502 1502 1501 1500 1499 1496 1494 1495 1495 1496 1496 1496 1496 1496 1496 1497 1497 1497 1497 1498 1499 1500 1503 1505 1507 1508 1508 1507 1507 1507 1508 1507 1509 1509 1511 1513 1514 1516 1520 1524 1524 1516 1515 1516 1517 1524 1519 1518 1535 1536 1528 1527 1527 1529 1530 1531 1535 1537 1539 1541 1542 1544 1545 1546 1548 1549
1520 1518 1516 1515 1514 1513 1512 1512 1511 1511 1511 1510 1510 1509 1508 1508 1507 1506 1505 1504 1503 1503 1502 1502 1500 1500 1498 1495 1494 1495 1495 1495 1495 1495 1496 1496 1496 1496 1497 1497 1498 1498 1499 1500 1502 1505 1507 1508 1508 1507 1506 1506 1507 1509 1512 1514 1514 1515 1521 1527 1525 1526 1526 1518 1517 1519 1522 1526 1517 1518 1535 1536 1529 1529 1528 1529 1531 1532 1535 1538 1539 1541 1542 1543 1544 1546 1548 1549
1519 1518 1516 1515 1513 1513 1512 1512 1511 1511 1511 1510 1510 1509 1508 1508 1506 1505 1504 1504 1503 1503 1502 1501 1500 1500 1498 1494 1494 1495 1495 1495 1495 1495 1495 1495 1496 1496 1497 1497 1497 1498 1499 1500 1502 1504 1506 1507 1507 1507 1507 1507 1508 1511 1515 1521 1522 1519 1523 1531 1529 1528 1529 1526 1524 1523 1525 1527 1522 1524 1537 1539 1532 1529 1529 1530 1532 1533 1535 1537 1539 1541 1542 1543 1544 1545 1547 1549
1519 1517 1516 1514 1513 1512 1512 1511 1511 1511 1510 1510 1510 1509 1508 1507 1506 1505 1504 1504 1503 1502 1502 1501 1500 1499 1497 1494 1494 1494 1494 1494 1494 1494 1494 1495 1496 1496 1497 1497 1497 1498 1499 1501 1503 1503 1505 1506 1506 1506 1507 1508 1509 1511 1522 1532 1531 1526 1525 1528 1529 1528 1531 1534 1529 1523 1523 1528 1528 1528 1535 1541 1536 1530 1530 1531 1532 1534 1536 1537 1538 1540 1541 1542 1543 1545 1547 1548
1518 1517 1516 1514 1513 1512 1512 1511 1511 1510 1510 1510 1509 1509 1508 1507 1505 1504 1504 1503 1503 1502 1501 1500 1500 1500 1497 1493 1493 1494 1493 1493 1493 1493 1494 1494 1495 1496 1497 1498 1498 1499 1499 1501 1502 1502 1504 1505 1504 1507 1508 1511 1511 1512 1524 1531 1526 1525 1526 1526 1529 1529 1531 1533 1527 1520 1521 1527 1531 1530 1534 1540 1538 1534 1534 1534 1534 1534 1535 1536 1538 1539 1540 1541 1542 1544 1546 1547
1518 1516 1515 1514 1513 1512 1511 1511 1511 1510 1510 1510 1509 1509 1508 1507 1505 1504 1503 1503 1501 1501 1500 1499 1499 1500 1498 1494 1493 1494 1493 1492 1492 1493 1494 1494 1495 1496 1497 1498 1499 1499 1500 1501 1502 1501 1503 1504 1506 1509 1511 1513 1512 1511 1516 1517 1515 1519 1521 1522 1527 1530 1531 1529 1524 1521 1522 1527 1532 1532 1535 1539 1539 1538 1536 1536 1536 1536 1535 1535 1537 1538 1539 1540 1542 1543 1545 1546
1517 1516 1515 1514 1513 1512 1511 1511 1511 1510 1510 1510 1510 1509 1508 1507 1505 1504 1502 1500 1499 1499 1498 1498 1498 1498 1497 1494 1493 1493 1493 1493 1493 1493 1494 1494 1495 1496 1497 1498 1498 1499 1500 1502 1502 1500 1501 1506 1509 1509 1510 1510 1509 1508 1509 1509 1511 1515 1519 1523 1525 1529 1531 1528 1526 1523 1521 1527 1533 1533 1535 1539 1539 1539 1536 1536 1538 1538 1536 1535 1536 1537 1538 1539 1541 1542 1544 1545
1517 1516 1514 1513 1512 1512 1511 1511 1511 1511 1510 1510 1510 1510 1509 1509 1509 1507 1503 1498 1496 1497 1496 1496 1497 1496 1494 1494 1494 1493 1493 1493 1493 1493 1494 1494 1495 1496 1497 1498 1499 1501 1501 1500 1502 1500 1502 1508 1508 1505 1505 1505 1505 1506 1507 1509 1511 1513 1519 1525 1527 1529 1531 1529 1527 1524 1520 1527 1534 1533 1536 1539 1540 1539 1536 1535 1537 1537 1536 1534 1535 1536 1537 1538 1539 1541 1543 1544
1516 1515 1514 1513 1512 1511 1511 1511 1511 1511 1511 1511 1511 1510 1510 1511 1511 1509 1506 1501 1496 1494 1495 1494 1495 1494 1493 1493 1493 1493 1495 1494 1493 1493 1493 1494 1495 1496 1497 1498 1500 1502 1500 1500 1503 1505 1506 1507 1504 1501 1502 1503 1504 1505 1507 1509 1510 1514 1519 1525 1529 1529 1529 1530 1529 1526 1525 1529 1534 1534 1535 1538 1538 1538 1537 1535 1535 1535 1534 1533 1533 1534 1535 1537 1538 1540 1542 1543
1516 1514 1513 1512 1512 1511 1511 1511 1511 1511 1511 1511 1511 1511 1511 1510 1509 1508 1508 1505 1498 1493 1493 1493 1493 1492 1492 1492 1493 1493 1493 1493 1493 1492 1492 1494 1494 1495 1497 1498 1500 1501 1501 1502 1505 1509 1511 1505 1499 1499 1501 1503 1505 1507 1507 1509 1510 1514 1519 1524 1527 1526 1526 1531 1532 1530 1529 1529 1532 1534 1535 1537 1538 1537 1536 1535 1534 1533 1533 1532 1532 1533 1534 1534 1536 1538 1540 1542
1515 1514 1513 1512 1512 1511 1511 1511 1511 1511 1511 1511 1511 1511 1510 1509 1509 1507 1506 1505 1500 1494 1492 1492 1492 1492 1491 1491 1492 1492 1492 1492 1492 1491 1492 1493 1493 1495 1496 1497 1500 1502 1502 1502 1503 1508 1508 1500 1496 1499 1501 1503 1506 1507 1508 1510 1513 1514 1515 1517 1521 1522 1521 1523 1527 1530 1531 1531 1530 1533 1542 1542 1538 1539 1537 1533 1533 1532 1531 1532 1532 1533 1533 1534 1535 1537 1538 1540
1515 1514 1513 1512 1512 1511 1511 1511 1511 1511 1511 1511 1511 1510 1510 1509 1508 1507 1505 1506 1504 1496 1491 1492 1491 1491 1490 1491 1491 1491 1492 1491 1490 1491 1491 1492 1493 1495 1495 1496 1499 1502 1502 1502 1503 1506 1504 1498 1497 1500 1502 1503 1506 1507 1507 1509 1514 1516 1513 1509 1513 1517 1517 1520 1525 1529 1537 1541 1531 1531 1549 1551 1538 1537 1537 1532 1532 1531 1530 1531 1530 1531 1533 1534 1535 1536 1537 1539
1515 1514 1512 1512 1511 1511 1511 1511 1510 1511 1510 1511 1510 1509 1510 1509 1507 1507 1505 1509 1508 1496 1492 1493 1492 1491 1490 1490 1490 1491 1494 1492 1488 1490 1491 1491 1493 1493 1496 1497 1497 1500 1501 1500 1503 1503 1499 1495 1496 1499 1501 1503 1506 1508 1506 1505 1514 1518 1508 1502 1507 1513 1517 1521 1525 1530 1538 1541 1529 1526 1543 1550 1541 1536 1534 1532 1533 1531 1530 1530 1529 1529 1531 1532 1534 1535 1537 1537
1514 1513 1512 1512 1511 1511 1511 1510 1510 1511 1510 1511 1510 1510 1510 1508 1508 1505 1506 1516 1513 1497 1492 1493 1492 1491 1489 1489 1489 1491 1497 1493 1488 1489 1489 1491 1492 1492 1496 1498 1498 1499 1496 1499 1506 1501 1495 1496 1497 1498 1500 1503 1506 1508 1504 1502 1512 1512 1498 1498 1506 1510 1517 1520 1522 1529 1532 1532 1532 1529 1534 1544 1545 1535 1528 1530 1533 1532 1531 1530 1529 1528 1529 1531 1532 1534 1536 1536
1514 1513 1512 1511 1511 1510 1510 1509 1510 1510 1510 1511 1509 1510 1509 1508 1508 1505 1512 1525 1514 1495 1492 1492 1490 1490 1489 1489 1489 1490 1493 1491 1489 1490 1487 1490 1492 1492 1495 1496 1497 1498 1494 1500 1508 1500 1493 1496 1497 1497 1500 1502 1501 1500 1499 1499 1505 1503 1495 1498 1504 1508 1516 1519 1524 1529 1528 1533 1542 1538 1534 1543 1545 1531 1524 1529 1533 1534 1531 1528 1527 1527 1527 1529 1531 1532 1534 1535
1513 1512 1511 1511 1510 1510 1509 1509 1510 1510 1510 1509 1509 1510 1508 1508 1507 1506 1518 1526 1508 1492 1492 1491 1490 1490 1488 1489 1490 1489 1489 1488 1490 1489 1487 1489 1491 1491 1494 1494 1494 1496 1494 1497 1502 1497 1493 1493 1493 1494 1498 1498 1494 1491 1492 1497 1501 1498 1495 1501 1507 1512 1517 1522 1530 1534 1534 1542 1547 1539 1535 1544 1544 1532 1528 1531 1531 1529 1527 1525 1525 1525 1525 1527 1528 1531 1533 1535
1512 1511 1510 1510 1509 1509 1509 1509 1509 1510 1510 1509 1509 1509 1507 1508 1509 1515 1528 1522 1503 1494 1492 1490 1490 1489 1489 1491 1491 1490 1489 1488 1488 1487 1488 1489 1490 1491 1492 1492 1492 1495 1496 1496 1497 1494 1490 1489 1490 1490 1491 1490 1487 1487 1489 1493 1497 1496 1499 1506 1513 1519 1523 1528 1534 1538 1546 1550 1544 1535 1532 1540 1544 1533 1526 1524 1519 1518 1521 1523 1523 1522 1524 1525 1527 1529 1531 1534
1511 1510 1510 1509 1509 1508 1508 1509 1509 1509 1509 1509 1508 1507 1507 1509 1512 1524 1528 1512 1500 1498 1492 1491 1491 1488 1490 1492 1492 1491 1489 1488 1487 1488 1490 1490 1491 1492 1492 1494 1495 1497 1500 1498 1496 1492 1489 1489 1488 1484 1483 1483 1486 1489 1489 1490 1492 1495 1502 1508 1519 1530 1533 1538 1542 1545 1554 1552 1540 1533 1530 1539 1547 1531 1517 1514 1509 1511 1515 1517 1519 1519 1521 1523 1525 1527 1529 1532
1510 1510 1509 1508 1508 1508 1508 1509 1509 1509 1509 1508 1508 1506 1508 1513 1519 1524 1518 1504 1503 1501 1492 1492 1491 1489 1491 1492 1492 1491 1490 1490 1488 1488 1490 1492 1494 1493 1494 1496 1497 1503 1509 1505 1499 1494 1488 1486 1483 1480 1478 1479 1485 1492 1495 1495 1494 1498 1505 1512 1528 1547 1550 1553 1557 1553 1553 1546 1535 1532 1533 1541 1540 1521 1510 1510 1507 1508 1509 1509 1513 1515 1518 1521 1523 1526 1527 1530
1510 1509 1508 1508 1508 1508 1508 1509 1508 1509 1508 1507 1508 1506 1509 1519 1523 1518 1511 1506 1505 1498 1491 1490 1489 1489 1492 1493 1493 1491 1491 1492 1489 1488 1490 1491 1494 1494 1493 1493 1493 1501 1508 1506 1503 1499 1492 1485 1480 1481 1480 1475 1481 1493 1502 1504 1501 1501 1505 1511 1528 1548 1556 1562 1564 1554 1547 1541 1531 1530 1537 1542 1532 1513 1505 1505 1503 1504 1505 1507 1511 1512 1515 1519 1521 1524 1526 1528
1509 1508 1508 1508 1508 1508 1508 1509 1508 1508 1508 1507 1507 1507 1512 1522 1519 1510 1508 1505 1499 1494 1490 1490 1489 1491 1493 1493 1492 1490 1491 1493 1489 1490 1491 1492 1496 1496 1493 1492 1492 1495 1499 1502 1503 1502 1503 1496 1483 1480 1479 1473 1476 1485 1490 1496 1501 1498 1498 1505 1516 1525 1533 1545 1551 1544 1542 1541 1535 1534 1539 1537 1526 1511 1502 1499 1499 1501 1503 1506 1509 1511 1514 1517 1520 1523 1524 1526
1508 1508 1508 1508 1508 1508 1508 1509 1508 1508 1508 1507 1507 1510 1517 1522 1516 1510 1507 1501 1496 1494 1491 1489 1490 1494 1495 1493 1491 1488 1489 1492 1490 1491 1493 1494 1496 1495 1492 1492 1492 1492 1497 1504 1502 1498 1503 1498 1479 1473 1473 1471 1475 1477 1476 1488 1500 1499 1499 1509 1511 1504 1505 1520 1531 1529 1533 1542 1541 1537 1533 1521 1512 1505 1498 1498 1499 1498 1501 1504 1506 1510 1512 1515 1519 1521 1523 1525
1508 1508 1508 1508 1508 1508 1508 1508 1508 1508 1508 1507 1509 1513 1514 1514 1510 1507 1502 1497 1496 1495 1494 1492 1492 1496 1499 1496 1493 1490 1488 1489 1490 1492 1493 1493 1494 1493 1491 1489 1488 1489 1492 1499 1499 1496 1500 1493 1475 1472 1471 1468 1472 1473 1473 1482 1493 1500 1507 1509 1500 1491 1494 1513 1528 1526 1528 1540 1539 1533 1528 1516 1509 1505 1498 1498 1499 1498 1500 1502 1503 1506 1509 1512 1515 1517 1521 1523
1508 1507 1508 1507 1508 1508 1508 1508 1508 1508 1507 1507 1512 1513 1509 1506 1503 1501 1498 1494 1494 1494 1495 1497 1494 1494 1499 1498 1496 1493 1490 1490 1492 1493 1495 1495 1493 1491 1489 1486 1484 1485 1485 1489 1492 1491 1496 1492 1477 1474 1476 1471 1469 1472 1473 1473 1479 1496 1507 1499 1491 1493 1495 1506 1527 1535 1535 1539 1535 1532 1530 1522 1517 1512 1502 1500 1501 1499 1500 1500 1502 1505 1506 1508 1510 1513 1518 1520
1507 1507 1507 1507 1507 1507 1508 1508 1508 1508 1507 1508 1512 1511 1507 1504 1500 1497 1495 1492 1492 1492 1495 1497 1493 1492 1496 1498 1497 1493 1492 1495 1496 1495 1497 1497 1495 1490 1488 1486 1482 1481 1480 1483 1489 1487 1491 1495 1484 1473 1477 1475 1469 1475 1484 1479 1474 1483 1489 1484 1488 1503 1506 1507 1523 1534 1537 1539 1535 1531 1529 1522 1515 1510 1503 1501 1500 1498 1499 1499 1500 1502 1503 1505 1507 1510 1515 1518
1507 1507 1507 1506 1507 1507 1508 1508 1508 1508 1508 1510 1514 1510 1505 1502 1497 1494 1494 1492 1492 1493 1494 1494 1492 1492 1493 1495 1496 1492 1493 1497 1497 1498 1499 1499 1497 1489 1486 1486 1483 1480 1478 1480 1486 1485 1487 1497 1492 1475 1472 1476 1474 1480 1490 1487 1478 1477 1482 1483 1485 1494 1501 1505 1511 1514 1521 1532 1532 1528 1527 1517 1503 1497 1495 1496 1495 1494 1497 1497 1497 1498 1499 1501 1504 1507 1511 1515
1507 1507 1507 1506 1507 1507 1507 1508 1508 1508 1509 1510 1512 1509 1504 1501 1496 1492 1492 1492 1491 1491 1492 1492 1491 1493 1492 1492 1493 1492 1492 1495 1495 1497 1499 1498 1497 1491 1485 1485 1484 1480 1478 1477 1482 1483 1484 1493 1496 1482 1473 1478 1481 1482 1485 1485 1482 1482 1487 1489 1488 1489 1492 1497 1502 1502 1506 1520 1528 1529 1525 1507 1491 1488 1489 1489 1491 1490 1492 1494 1495 1496 1498 1501 1503 1505 1508 1512
1507 1507 1507 1506 1506 1507 1507 1509 1508 1508 1509 1509 1509 1507 1503 1500 1496 1492 1490 1490 1489 1488 1489 1490 1490 1492 1492 1493 1493 1491 1492 1494 1493 1496 1497 1495 1497 1494 1487 1484 1484 1482 1481 1481 1481 1482 1484 1490 1494 1488 1482 1484 1482 1477 1476 1477 1477 1482 1486 1487 1487 1489 1493 1501 1509 1505 1501 1508 1517 1523 1519 1500 1486 1487 1486 1486 1488 1487 1488 1491 1493 1495 1498 1501 1504 1505 1507 1510
1507 1508 1507 1506 1506 1507 1508 1509 1509 1509 1509 1508 1506 1504 1501 1499 1496 1493 1490 1489 1489 1487 1487 1488 1489 1490 1491 1491 1491 1490 1492 1493 1494 1495 1495 1494 1494 1493 1488 1483 1482 1482 1482 1484 1483 1480 1482 1487 1491 1490 1487 1484 1480 1475 1474 1474 1473 1478 1483 1482 1483 1486 1488 1499 1509 1505 1502 1507 1509 1514 1514 1499 1488 1487 1485 1486 1488 1487 1489 1491 1492 1496 1498 1500 1503 1504 1507 1509
1507 1507 1507 1506 1507 1507 1509 1510 1510 1509 1508 1505 1503 1502 1500 1499 1497 1494 1491 1490 1489 1488 1488 1489 1489 1489 1489 1489 1489 1490 1491 1493 1494 1494 1494 1494 1491 1488 1487 1483 1482 1482 1481 1484 1483 1478 1482 1490 1494 1492 1487 1481 1477 1473 1472 1472 1476 1483 1485 1482 1484 1486 1483 1488 1494 1494 1501 1507 1506 1513 1515 1499 1488 1488 1486 1487 1488 1488 1490 1491 1493 1496 1498 1500 1502 1504 1506 1508
1507 1507 1507 1507 1507 1508 1510 1511 1510 1509 1507 1504 1503 1501 1499 1498 1496 1494 1493 1491 1489 1489 1490 1490 1490 1489 1489 1488 1488 1490 1491 1494 1496 1493 1493 1494 1490 1486 1485 1484 1483 1483 1481 1482 1482 1481 1487 1497 1500 1500 1501 1497 1492 1489 1484 1480 1482 1488 1489 1485 1484 1483 1482 1485 1488 1491 1500 1504 1503 1511 1511 1496 1489 1489 1487 1488 1489 1489 1491 1492 1493 1496 1498 1500 1502 1504 1506 1508
1507 1507 1507 1507 1508 1508 1509 1509 1509 1509 1507 1506 1505 1502 1500 1497 1494 1493 1492 1490 1488 1488 1490 1490 1489 1488 1488 1488 1490 1491 1491 1493 1495 1494 1493 1493 1489 1484 1483 1484 1484 1482 1481 1481 1480 1480 1490 1499 1500 1506 1518 1521 1518 1513 1503 1495 1490 1489 1490 1490 1487 1484 1483 1484 1489 1496 1502 1504 1503 1503 1499 1492 1491 1492 1490 1490 1490 1490 1492 1493 1495 1496 1498 1500 1502 1504 1506 1507
1507 1507 1507 1507 1507 1507 1508 1507 1508 1508 1508 1509 1507 1503 1501 1499 1494 1491 1491 1490 1489 1487 1489 1490 1488 1488 1490 1490 1493 1495 1493 1492 1494 1494 1494 1494 1491 1486 1484 1485 1485 1482 1481 1481 1480 1482 1491 1499 1500 1505 1515 1517 1514 1508 1499 1496 1497 1497 1496 1495 1491 1488 1485 1483 1490 1496 1497 1501 1503 1496 1490 1490 1491 1492 1493 1493 1492 1492 1493 1494 1495 1496 1498 1501 1502 1504 1505 1508
1508 1509 1509 1509 1508 1507 1507 1506 1507 1508 1508 1510 1508 1502 1501 1500 1496 1493 1491 1490 1489 1488 1489 1490 1489 1491 1493 1493 1496 1498 1497 1495 1494 1495 1495 1495 1493 1489 1486 1486 1485 1483 1481 1480 1481 1484 1493 1504 1506 1505 1507 1506 1501 1498 1494 1494 1500 1503 1502 1499 1494 1492 1489 1486 1490 1491 1490 1498 1502 1492 1488 1490 1488 1490 1495 1494 1492 1493 1493 1494 1495 1497 1498 1501 1503 1505 1506 1508
1509 1509 1509 1510 1510 1509 1509 1507 1507 1507 1506 1507 1506 1502 1500 1500 1498 1496 1493 1490 1489 1488 1490 1494 1493 1494 1495 1494 1497 1500 1500 1499 1498 1497 1497 1496 1494 1492 1491 1489 1487 1485 1483 1482 1481 1484 1494 1507 1509 1506 1508 1505 1498 1497 1495 1495 1499 1500 1501 1501 1498 1495 1494 1493 1495 1494 1491 1493 1491 1485 1488 1491 1489 1491 1494 1492 1492 1493 1494 1495 1497 1497 1499 1501 1503 1505 1507 1508
1509 1510 1509 1509 1509 1509 1509 1508 1507 1507 1506 1505 1504 1501 1500 1499 1497 1495 1493 1491 1492 1490 1491 1496 1497 1496 1495 1493 1495 1501 1502 1503 1504 1501 1498 1497 1497 1496 1497 1496 1492 1487 1485 1484 1483 1484 1494 1506 1507 1504 1506 1504 1499 1499 1496 1495 1498 1498 1499 1501 1499 1498 1498 1497 1498 1497 1493 1492 1489 1488 1491 1493 1492 1493 1493 1492 1493 1494 1495 1497 1498 1499 1501 1502 1503 1506 1507 1509
1510 1510 1509 1509 1508 1507 1507 1507 1506 1507 1505 1504 1503 1500 1499 1498 1496 1494 1492 1493 1495 1493 1492 1495 1497 1496 1496 1494 1495 1499 1500 1501 1503 1502 1498 1497 1498 1498 1498 1500 1496 1490 1486 1486 1486 1485 1492 1503 1504 1501 1505 1506 1501 1500 1498 1497 1500 1501 1500 1500 1499 1498 1500 1500 1501 1501 1498 1499 1498 1494 1493 1496 1497 1495 1494 1495 1495 1495 1497 1499 1500 1501 1503 1503 1505 1506 1508 1510
1510 1510 1509 1509 1508 1507 1507 1506 1506 1507 1506 1504 1504 1502 1500 1498 1495 1494 1493 1492 1493 1493 1492 1493 1494 1495 1496 1496 1496 1498 1498 1497 1499 1499 1496 1496 1497 1497 1497 1497 1495 1493 1490 1489 1489 1487 1490 1500 1502 1502 1511 1512 1503 1501 1502 1497 1497 1502 1503 1504 1504 1504 1505 1505 1506 1507 1506 1505 1502 1499 1501 1503 1500 1497 1496 1498 1498 1499 1501 1502 1502 1504 1504 1505 1507 1507 1508 1510
1510 1510 1510 1510 1509 1506 1506 1506 1505 1507 1506 1505 1504 1502 1501 1499 1494 1493 1495 1494 1491 1491 1491 1491 1492 1494 1496 1498 1497 1496 1496 1495 1496 1496 1495 1494 1494 1494 1495 1494 1493 1493 1493 1491 1492 1491 1492 1498 1500 1504 1514 1514 1505 1505 1505 1499 1503 1512 1511 1508 1509 1509 1508 1508 1507 1508 1507 1505 1504 1505 1507 1505 1500 1497 1499 1500 1501 1503 1504 1505 1506 1506 1506 1508 1508 1508 1509 1510